Location: Proctor
(47.8934°N, 114.3048°W)
Time: 18:26:58
(UTC+00:00)

Transit 4A - Pass Details

Date: 15 May 2025
Orbit: 866 x 975 km, 66.8° (Epoch: 13 June)

Event Time Altitude Azimuth Distance (km) Brightness Sun altitude
Rises 07:20:53 0° 302° (WNW) 3,646 11.5 -23.1°
Reaches altitude 10° 07:25:11 10° 329° (NNW) 2,679 11.1 -23.1°
Maximum altitude 07:27:58 13° 356° (N) 2,445 11.1 -23.1°
Drops below altitude 10° 07:30:43 10° 23° (NNE) 2,646 11.2 -23.1°
Sets 07:34:54 0° 50° (NE) 3,562 11.5 -23.2°
